Regional Weather Roundup
Issued by NWS

Home | Current Version | Previous Version | Graphics & Text | Print | Product List | Glossary On
Versions: 1 2 3 4 5 6 7 8 9 10 11 12 13 14 15 16 17 18 19 20 21 22 23 24 25 26 27 28 29 30 31 32 33 34 35 36 37 38 39 40 41 42 43 44 45 46 47 48 49 50
000
ASUS43 KBIS 150810
RWRND

NORTH DAKOTA REGIONAL WEATHER ROUNDUP
NATIONAL WEATHER SERVICE BISMARCK ND
300 AM CDT MON SEP 15 2014

NOTE: "FAIR" INDICATES FEW OR NO CLOUDS BELOW 12,000 FEET WITH NO
SIGNIFICANT WEATHER AND/OR OBSTRUCTIONS TO VISIBILITY.


NDZ001>003-009>011-017-150900-
NORTHWEST NORTH DAKOTA

CITY           SKY/WX    TMP DP  RH WIND       PRES   REMARKS
WILLISTON      CLEAR     40  34  79 S3        30.22R
MINOT          CLOUDY    42  33  70 SW8       30.20R
MINOT AFB      CLOUDY    39  35  85 SW6       30.19S
$$

NDZ018>021-031>035-040>046-150900-
SOUTHWEST NORTH DAKOTA

CITY           SKY/WX    TMP DP  RH WIND       PRES   REMARKS
BISMARCK       CLEAR     36  36 100 CALM      30.24R
DICKINSON      PTCLDY    37  32  82 S7        30.23R
GARRISON         N/A     35  32  88 CALM      30.22R
HETTINGER ARPT CLOUDY    44  37  76 CALM      30.25S
$$

NDZ004>008-012>016-024-026-027-054-150900-
NORTHEAST NORTH DAKOTA

CITY           SKY/WX    TMP DP  RH WIND       PRES   REMARKS
GRAND FORKS    MOCLDY    44  42  93 W6        30.18R
GRND FRKS AFB  PTCLDY    40  40  99 NW6       30.19R
DEVILS LAKE    CLEAR     41  34  75 W7        30.18S
$$

NDZ022-023-025-028>030-036>039-047>053-150900-
SOUTHEAST NORTH DAKOTA

CITY           SKY/WX    TMP DP  RH WIND       PRES   REMARKS
FARGO          CLOUDY    47  41  80 NW6       30.17S
JAMESTOWN      CLOUDY    43  40  89 W6        30.20R
$$



USA.gov is the U.S. government's official web portal to all federal, state and local government web resources and services.